When you browse on this site, cookies collect data to enhance your experience and personalize the content and advertising you see.
Visit our Privacy Policy to learn more. By continuing to use the site, you agree to this use of cookies and data.
  • en Belgique
  • Liste des pays
  • À 7 jours
  • Température de l'eau
  • Carte satellitaire
  • Carte météo
  • Widgets météo
  • user-avatar
    Se connecter

    Météo par heure à Algérie

    Ce jour, 21 Novembre, Mercredi

    Heure Température Précipitation Vent Pression Humidité
    00:00 +14°C° 0 mm 11 m/s 746 mmHg 69%
    01:00 +13°C° 0.1 mm 10 m/s 746 mmHg 71%
    02:00 +13°C° 0.1 mm 9 m/s 746 mmHg 74%
    03:00 +13°C° 0.1 mm 8 m/s 746 mmHg 77%
    04:00 +12°C° 0.2 mm 7 m/s 747 mmHg 76%
    05:00 +12°C° 0.2 mm 7 m/s 747 mmHg 76%
    06:00 +12°C° 0 mm 7 m/s 748 mmHg 74%
    07:00 +15°C° 0 mm 7 m/s 748 mmHg 68%
    08:00 +16°C° 0 mm 6 m/s 748 mmHg 61%
    09:00 +17°C° 0 mm 6 m/s 749 mmHg 55%
    10:00 +20°C° 0 mm 5 m/s 749 mmHg 50%
    11:00 +21°C° 0 mm 5 m/s 749 mmHg 44%
    12:00 +22°C° 0 mm 4 m/s 749 mmHg 39%
    13:00 +22°C° 0 mm 3 m/s 749 mmHg 38%
    14:00 +24°C° 0 mm 2 m/s 749 mmHg 36%
    15:00 +24°C° 0 mm 2 m/s 748 mmHg 35%
    16:00 +21°C° 0 mm 2 m/s 749 mmHg 39%
    17:00 +20°C° 0 mm 2 m/s 749 mmHg 44%
    18:00 +19°C° 0 mm 2 m/s 749 mmHg 48%
    19:00 +18°C° 0 mm 2 m/s 750 mmHg 48%
    20:00 +18°C° 0 mm 3 m/s 750 mmHg 48%
    21:00 +18°C° 0 mm 3 m/s 750 mmHg 48%
    22:00 +17°C° 0 mm 3 m/s 750 mmHg 49%
    23:00 +17°C° 0 mm 3 m/s 750 mmHg 50%

    Demain, 22 Novembre, Jeudi

    Heure Température Précipitation Vent Pression Humidité
    00:00 +16°C° 0 mm 3 m/s 750 mmHg 51%
    01:00 +16°C° 0 mm 3 m/s 750 mmHg 52%
    02:00 +16°C° 0 mm 3 m/s 750 mmHg 52%
    03:00 +16°C° 0 mm 3 m/s 750 mmHg 52%
    04:00 +16°C° 0 mm 3 m/s 750 mmHg 51%
    05:00 +16°C° 0 mm 3 m/s 750 mmHg 50%
    06:00 +16°C° 0 mm 3 m/s 750 mmHg 49%
    07:00 +17°C° 0 mm 2 m/s 750 mmHg 48%
    08:00 +18°C° 0 mm 2 m/s 750 mmHg 46%
    09:00 +19°C° 0 mm 2 m/s 751 mmHg 44%
    10:00 +21°C° 0 mm 2 m/s 750 mmHg 40%
    11:00 +23°C° 0 mm 2 m/s 750 mmHg 35%
    12:00 +24°C° 0 mm 2 m/s 750 mmHg 31%
    13:00 +24°C° 0 mm 3 m/s 750 mmHg 30%
    14:00 +24°C° 0 mm 3 m/s 749 mmHg 30%
    15:00 +24°C° 0 mm 3 m/s 749 mmHg 30%
    16:00 +22°C° 0 mm 3 m/s 749 mmHg 31%
    17:00 +20°C° 0 mm 4 m/s 749 mmHg 33%
    18:00 +19°C° 0 mm 4 m/s 749 mmHg 35%
    19:00 +18°C° 0 mm 4 m/s 749 mmHg 36%
    20:00 +18°C° 0 mm 4 m/s 749 mmHg 38%
    21:00 +16°C° 0 mm 5 m/s 749 mmHg 40%
    22:00 +16°C° 0 mm 5 m/s 749 mmHg 41%
    23:00 +16°C° 0 mm 5 m/s 749 mmHg 43%

    Après-demain, 23 Novembre, Vendredi

    Heure Température Précipitation Vent Pression Humidité
    00:00 +15°C° 0 mm 5 m/s 749 mmHg 44%
    01:00 +15°C° 0 mm 6 m/s 749 mmHg 45%
    02:00 +15°C° 0 mm 6 m/s 749 mmHg 46%
    03:00 +14°C° 0 mm 6 m/s 748 mmHg 47%
    04:00 +14°C° 0 mm 6 m/s 748 mmHg 47%
    05:00 +14°C° 0 mm 6 m/s 748 mmHg 47%
    06:00 +14°C° 0 mm 6 m/s 748 mmHg 47%
    07:00 +15°C° 0 mm 6 m/s 749 mmHg 45%
    08:00 +16°C° 0 mm 6 m/s 749 mmHg 43%
    09:00 +19°C° 0 mm 6 m/s 750 mmHg 41%
    10:00 +20°C° 0 mm 5 m/s 749 mmHg 37%
    11:00 +21°C° 0 mm 5 m/s 749 mmHg 34%
    12:00 +23°C° 0 mm 5 m/s 749 mmHg 31%
    13:00 +22°C° 0 mm 5 m/s 749 mmHg 35%
    14:00 +22°C° 0 mm 5 m/s 749 mmHg 40%
    15:00 +22°C° 0 mm 5 m/s 749 mmHg 44%
    16:00 +20°C° 0 mm 4 m/s 749 mmHg 56%
    17:00 +18°C° 0 mm 3 m/s 750 mmHg 68%
    18:00 +17°C° 0 mm 2 m/s 750 mmHg 80%
    19:00 +17°C° 0 mm 2 m/s 750 mmHg 81%
    20:00 +16°C° 0 mm 2 m/s 751 mmHg 82%
    21:00 +16°C° 0 mm 1 m/s 751 mmHg 83%
    22:00 +16°C° 0 mm 1 m/s 751 mmHg 82%
    23:00 +16°C° 0 mm 1 m/s 751 mmHg 81%

    24 Novembre, Samedi

    Heure Température Précipitation Vent Pression Humidité
    00:00 +16°C° 0 mm 1 m/s 751 mmHg 80%
    01:00 +16°C° 0.5 mm 1 m/s 751 mmHg 79%
    02:00 +16°C° 0.5 mm 1 m/s 750 mmHg 78%
    03:00 +16°C° 0.5 mm 1 m/s 750 mmHg 76%
    04:00 +16°C° 0.6 mm 1 m/s 750 mmHg 76%
    05:00 +16°C° 0.6 mm 1 m/s 750 mmHg 76%
    06:00 +16°C° 0.6 mm 1 m/s 750 mmHg 76%
    07:00 +16°C° 0.5 mm 1 m/s 750 mmHg 75%
    08:00 +16°C° 0.5 mm 1 m/s 750 mmHg 74%
    09:00 +16°C° 0.5 mm 1 m/s 751 mmHg 73%
    10:00 +18°C° 0.2 mm 1 m/s 750 mmHg 68%
    11:00 +19°C° 0.2 mm 1 m/s 750 mmHg 63%
    12:00 +20°C° 0.2 mm 1 m/s 749 mmHg 58%
    13:00 +20°C° 0 mm 1 m/s 749 mmHg 59%
    14:00 +20°C° 0 mm 1 m/s 749 mmHg 61%
    15:00 +20°C° 0 mm 1 m/s 748 mmHg 62%
    16:00 +19°C° 0.2 mm 1 m/s 748 mmHg 68%
    17:00 +18°C° 0.2 mm 1 m/s 749 mmHg 74%
    18:00 +16°C° 0.2 mm 1 m/s 749 mmHg 80%
    19:00 +16°C° 0.7 mm 1 m/s 749 mmHg 83%
    20:00 +16°C° 0.7 mm 1 m/s 749 mmHg 85%
    21:00 +15°C° 0.7 mm 2 m/s 750 mmHg 87%
    22:00 +15°C° 0.4 mm 2 m/s 749 mmHg 87%
    23:00 +14°C° 0.4 mm 3 m/s 749 mmHg 86%

    25 Novembre, Dimanche

    Heure Température Précipitation Vent Pression Humidité
    00:00 +14°C° 0.4 mm 4 m/s 749 mmHg 86%
    01:00 +14°C° 0.1 mm 4 m/s 749 mmHg 86%
    02:00 +14°C° 0.1 mm 5 m/s 749 mmHg 86%
    03:00 +14°C° 0.1 mm 5 m/s 749 mmHg 86%
    04:00 +13°C° 0.1 mm 5 m/s 749 mmHg 86%
    05:00 +13°C° 0.1 mm 6 m/s 749 mmHg 85%
    06:00 +11°C° 0.1 mm 6 m/s 749 mmHg 85%
    07:00 +13°C° 0 mm 6 m/s 749 mmHg 79%
    08:00 +14°C° 0 mm 6 m/s 750 mmHg 74%
    09:00 +15°C° 0 mm 6 m/s 750 mmHg 68%
    10:00 +16°C° 0 mm 6 m/s 750 mmHg 64%
    11:00 +17°C° 0 mm 6 m/s 749 mmHg 60%
    12:00 +19°C° 0 mm 6 m/s 749 mmHg 56%
    13:00 +19°C° 0 mm 6 m/s 749 mmHg 55%
    14:00 +19°C° 0 mm 6 m/s 748 mmHg 55%
    15:00 +20°C° 0 mm 6 m/s 748 mmHg 54%
    16:00 +19°C° 0 mm 6 m/s 748 mmHg 58%
    17:00 +17°C° 0 mm 6 m/s 749 mmHg 61%
    18:00 +16°C° 0 mm 6 m/s 749 mmHg 65%
    19:00 +16°C° 0 mm 6 m/s 749 mmHg 67%
    20:00 +16°C° 0 mm 6 m/s 749 mmHg 69%
    21:00 +16°C° 0 mm 7 m/s 749 mmHg 72%
    22:00 +15°C° 0.1 mm 6 m/s 749 mmHg 74%
    23:00 +15°C° 0.1 mm 6 m/s 749 mmHg 77%

    26 Novembre, Lundi

    Heure Température Précipitation Vent Pression Humidité
    00:00 +14°C° 0.1 mm 6 m/s 749 mmHg 80%
    01:00 +14°C° 0 mm 6 m/s 749 mmHg 80%
    02:00 +14°C° 0 mm 7 m/s 749 mmHg 80%
    03:00 +14°C° 0 mm 7 m/s 749 mmHg 80%
    04:00 +15°C° 0 mm 7 m/s 749 mmHg 80%
    05:00 +15°C° 0 mm 7 m/s 749 mmHg 80%
    06:00 +15°C° 0 mm 7 m/s 749 mmHg 79%
    07:00 +16°C° 0 mm 6 m/s 749 mmHg 76%
    08:00 +17°C° 0 mm 6 m/s 750 mmHg 72%
    09:00 +17°C° 0 mm 6 m/s 750 mmHg 68%
    10:00 +19°C° 0.1 mm 6 m/s 750 mmHg 67%
    11:00 +19°C° 0.1 mm 6 m/s 750 mmHg 65%
    12:00 +20°C° 0.1 mm 6 m/s 750 mmHg 63%
    13:00 +19°C° 0.1 mm 5 m/s 750 mmHg 66%
    14:00 +19°C° 0.1 mm 5 m/s 750 mmHg 69%
    15:00 +17°C° 0.1 mm 5 m/s 750 mmHg 73%
    16:00 +18°C° 0 mm 4 m/s 750 mmHg 74%
    17:00 +17°C° 0 mm 4 m/s 750 mmHg 76%
    18:00 +17°C° 0 mm 3 m/s 750 mmHg 78%
    19:00 +17°C° 0 mm 3 m/s 751 mmHg 78%
    20:00 +17°C° 0 mm 2 m/s 751 mmHg 77%
    21:00 +17°C° 0 mm 2 m/s 751 mmHg 77%
    22:00 +17°C° 0.2 mm 2 m/s 751 mmHg 78%
    23:00 +17°C° 0.2 mm 2 m/s 751 mmHg 79%
    Voir plus